Total_Precipitation_Accumulation
0.08 0.13 0.19 0.20 0.15 0.14 0.13 0.13 0.16 0.21 0.33 0.44 0.55 0.66 0.76 0.82 0.79 0.78 0.75 0.77 0.89 1.01 1.17 1.17 1.09 1.00 1.04 1.28 1.51 1.76 2.05 2.19 2.23 2.33 2.51 2.77 3.00 3.00 2.93 2.85 2.75 2.93 2.92 2.83
0.08 0.12 0.15 0.13 0.13 0.12 0.11 0.11 0.13 0.20 0.35 0.48 0.60 0.66 0.62 0.66 0.65 0.72 0.82 0.89 1.04 1.19 1.32 1.42 1.45 1.43 1.46 1.63 1.93 2.22 2.50 2.62 2.75 2.84 2.96 3.10 3.20 3.26 3.32 3.27 3.20 3.15 3.04 3.08
0.15 0.16 0.18 0.16 0.16 0.15 0.14 0.15 0.17 0.25 0.36 0.50 0.65 0.66 0.73 0.74 0.73 0.83 0.93 1.06 1.20 1.30 1.39 1.53 1.57 1.64 1.83 2.02 2.26 2.47 2.64 2.74 2.85 2.97 3.15 3.31 3.39 3.45 3.32 3.29 3.27 3.17 3.14 3.18
0.23 0.29 0.33 0.23 0.26 0.27 0.29 0.32 0.35 0.38 0.45 0.55 0.68 0.71 0.83 0.89 0.87 0.88 1.00 1.19 1.24 1.32 1.43 1.53 1.66 1.83 2.02 2.17 2.28 2.59 2.80 2.89 2.95 3.00 3.10 3.30 3.52 3.46 3.32 3.31 3.27 3.23 3.17 3.06
0.38 0.37 0.39 0.39 0.35 0.36 0.48 0.60 0.54 0.67 0.76 0.73 0.78 0.86 0.92 0.95 1.14 1.14 1.09 1.20 1.28 1.37 1.46 1.58 1.65 1.71 1.72 1.85 2.06 2.31 2.53 2.71 2.73 2.89 3.08 3.18 3.21 3.25 3.36 3.36 3.17 3.02 2.91 2.90
0.54 0.57 0.57 0.57 0.53 0.42 0.49 0.89 0.86 0.94 1.03 0.99 1.03 1.30 1.23 0.97 0.98 1.13 1.16 1.18 1.30 1.46 1.52 1.49 1.51 1.57 1.65 1.81 2.03 2.25 2.46 2.67 2.85 3.01 3.18 3.23 3.26 3.41 3.48 3.47 3.43 3.40 3.26 3.20
0.61 0.67 0.66 0.56 0.51 0.54 0.92 1.23 1.18 1.25 1.27 1.20 1.25 1.33 1.26 1.09 1.02 1.04 1.09 1.12 1.23 1.42 1.59 1.58 1.55 1.74 1.94 2.08 2.22 2.39 2.53 2.62 2.77 2.97 3.20 3.48 3.66 3.59 3.61 3.59 3.52 3.36 3.23 3.10
0.84 1.05 1.17 0.85 0.77 1.03 1.23 0.98 1.03 1.23 1.46 1.48 1.42 1.34 1.27 1.18 1.13 1.06 1.00 1.07 1.27 1.43 1.58 1.71 1.80 1.96 2.17 2.20 2.25 2.46 2.68 2.78 2.86 3.07 3.15 3.32 3.59 3.60 3.53 3.52 3.44 3.36 3.36 3.35
1.20 1.37 1.24 1.05 1.06 1.01 1.10 1.26 1.32 1.42 1.64 1.69 1.55 1.42 1.46 1.41 1.32 1.23 1.13 1.14 1.28 1.44 1.60 1.70 1.89 2.07 2.23 2.31 2.38 2.50 2.65 2.83 3.04 3.16 3.24 3.37 3.54 3.61 3.59 3.52 3.36 3.24 3.15 2.98
1.43 1.56 1.36 1.19 1.16 1.11 1.17 1.36 1.44 1.43 1.47 1.52 1.51 1.47 1.63 1.68 1.57 1.54 1.49 1.43 1.44 1.53 1.64 1.74 1.81 2.01 2.21 2.34 2.40 2.52 2.61 2.69 2.87 3.03 3.18 3.35 3.38 3.25 3.12 2.97 2.90 2.88 2.73 2.62
1.76 1.93 1.83 1.61 1.45 1.35 1.36 1.33 1.41 1.36 1.39 1.41 1.47 1.49 1.58 1.73 1.76 1.72 1.63 1.55 1.58 1.66 1.77 1.80 1.82 1.90 2.15 2.36 2.45 2.50 2.64 2.72 2.74 2.76 2.86 3.03 3.10 3.06 2.93 2.75 2.60 2.55 2.44 2.46
2.28 2.20 2.26 2.08 1.72 1.51 1.57 1.55 1.50 1.47 1.54 1.59 1.58 1.57 1.61 1.76 1.81 1.80 1.73 1.68 1.70 1.75 1.80 1.82 1.92 2.02 2.13 2.42 2.69 2.77 2.74 2.61 2.54 2.48 2.49 2.57 2.59 2.62 2.73 2.60 2.59 2.45 2.32 2.25
2.01 2.17 2.17 1.96 1.75 1.77 1.76 1.74 1.72 1.78 1.78 1.75 1.81 1.82 1.77 1.77 1.79 1.79 1.79 1.81 1.79 1.82 1.89 1.95 2.06 2.15 2.16 2.27 2.57 2.78 2.71 2.54 2.45 2.40 2.39 2.35 2.32 2.36 2.49 2.55 2.50 2.38 2.33 2.17
1.78 1.95 2.13 1.96 1.90 1.85 1.81 1.87 1.90 1.99 2.04 1.94 1.95 1.98 1.92 1.87 1.81 1.84 1.92 1.83 1.68 1.70 1.81 1.90 1.98 2.11 2.21 2.28 2.41 2.52 2.58 2.66 2.56 2.43 2.42 2.44 2.44 2.41 2.40 2.46 2.44 2.32 2.29 2.23
1.73 1.74 1.91 1.83 1.78 1.85 1.82 1.82 1.93 2.06 2.17 2.15 2.14 2.08 1.94 1.93 1.93 1.86 1.77 1.67 1.65 1.69 1.70 1.76 1.83 1.86 1.95 2.18 2.37 2.46 2.48 2.53 2.58 2.55 2.50 2.55 2.55 2.44 2.35 2.29 2.26 2.15 2.06 2.09
1.71 1.59 1.65 1.88 1.92 1.95 2.06 2.09 2.05 2.01 1.95 1.96 1.97 1.96 1.94 1.93 1.88 1.80 1.67 1.65 1.75 1.80 1.77 1.72 1.73 1.75 1.77 1.94 2.22 2.42 2.45 2.60 2.52 2.51 2.48 2.44 2.46 2.44 2.40 2.40 2.32 2.20 2.09 2.04
1.82 1.70 1.69 1.82 1.87 1.99 2.10 2.04 1.95 1.88 1.85 1.84 1.84 1.79 1.81 1.92 1.94 1.93 1.90 1.79 1.77 1.86 1.86 1.88 1.89 1.83 1.82 2.00 2.19 2.31 2.25 2.37 2.43 2.22 2.22 2.33 2.32 2.33 2.36 2.40 2.36 2.26 2.13 2.10
1.91 1.72 1.74 1.86 1.87 1.99 1.94 1.84 1.77 1.67 1.67 1.76 1.91 1.94 1.95 1.98 1.98 2.04 2.08 1.94 1.76 1.75 1.78 1.85 1.83 1.82 1.84 1.97 2.12 2.26 2.25 2.12 2.09 2.12 2.25 2.32 2.38 2.40 2.38 2.31 2.27 2.25 2.20 2.17
1.83 1.79 1.74 1.71 1.74 1.84 1.80 1.76 1.73 1.74 1.71 1.77 1.93 2.09 2.16 2.13 2.03 1.93 1.97 2.08 2.08 1.98 1.79 1.71 1.80 1.66 1.69 1.87 1.95 2.03 2.10 2.07 2.01 2.05 2.21 2.37 2.42 2.40 2.41 2.35 2.30 2.31 2.27 2.18
1.92 1.93 1.84 1.75 1.79 1.90 1.97 1.87 1.79 1.79 1.75 1.76 1.92 2.10 2.16 2.07 1.98 1.94 2.06 2.13 2.09 1.89 1.62 1.58 1.57 1.58 1.55 1.66 1.77 1.74 1.86 1.98 2.01 1.98 2.05 2.11 2.13 2.14 2.13 2.09 2.10 2.12 2.15 2.19
2.17 2.05 1.93 1.88 1.81 1.81 1.96 1.95 1.95 1.91 1.73 1.70 1.86 1.94 1.99 1.93 1.83 1.88 2.04 2.07 1.93 1.69 1.50 1.56 1.53 1.56 1.46 1.53 1.61 1.56 1.71 1.87 1.97 1.93 1.89 1.92 1.91 1.84 1.82 1.88 2.00 2.11 2.14 2.15
2.24 2.03 1.80 1.68 1.75 1.83 1.86 1.84 1.80 1.82 1.87 1.92 1.91 1.86 1.89 1.93 1.83 1.87 1.88 1.91 1.76 1.71 1.45 1.39 1.44 1.52 1.51 1.45 1.41 1.57 1.70 1.79 1.83 1.82 1.80 1.84 1.89 1.87 1.82 1.85 1.96 2.00 2.01 1.99
2.24 2.06 1.93 1.82 1.82 1.91 1.95 1.90 1.83 1.85 1.91 2.00 2.05 2.04 2.01 1.95 1.84 1.90 1.96 1.77 1.55 1.55 1.42 1.41 1.45 1.47 1.46 1.37 1.43 1.55 1.57 1.59 1.58 1.59 1.60 1.69 1.84 1.92 1.87 1.78 1.72 1.74 1.80 1.81
2.32 2.21 2.10 1.90 1.83 1.95 2.16 2.11 1.99 1.94 1.86 1.89 1.93 1.96 1.97 1.98 1.93 1.84 1.92 1.94 1.73 1.52 1.43 1.46 1.41 1.33 1.39 1.39 1.48 1.54 1.57 1.56 1.56 1.59 1.63 1.71 1.84 1.96 1.94 1.80 1.63 1.55 1.60 1.73
2.33 2.25 2.13 2.02 1.95 1.95 2.06 2.04 1.96 1.84 1.73 1.77 1.73 1.74 1.81 1.90 1.98 1.97 1.96 1.89 1.84 1.68 1.50 1.45 1.43 1.37 1.30 1.38 1.52 1.55 1.51 1.52 1.57 1.64 1.66 1.70 1.74 1.80 1.89 1.84 1.68 1.56 1.50 1.56
2.44 2.25 2.05 1.97 1.94 1.88 1.91 1.94 2.02 2.03 1.96 1.95 1.84 1.72 1.72 1.83 1.93 1.99 1.97 1.86 1.70 1.62 1.50 1.46 1.40 1.38 1.29 1.37 1.44 1.50 1.52 1.52 1.53 1.49 1.42 1.41 1.42 1.41 1.45 1.50 1.53 1.54 1.53 1.48
2.25 2.13 2.03 1.91 1.78 1.73 1.91 1.98 2.00 2.09 2.09 1.98 1.85 1.70 1.71 1.85 1.96 1.95 1.81 1.77 1.68 1.57 1.43 1.29 1.20 1.22 1.29 1.30 1.29 1.31 1.34 1.33 1.33 1.41 1.50 1.54 1.38 1.23 1.18 1.24 1.32 1.38 1.40 1.35